Regional Weather Roundup
Issued by NWS Wakefield, VA

Home | Current Version | Previous Version | Graphics & Text | Print | Product List | Glossary On
Versions: 1 2 3 4 5 6 7 8 9 10 11 12 13 14 15 16 17 18 19 20 21 22 23 24 25 26 27 28 29 30 31 32 33 34 35 36 37 38 39 40 41 42 43 44 45 46 47 48 49 50
000
ASUS41 KAKQ 050915
RWRAKQ

REGIONAL WEATHER ROUNDUP
NATIONAL WEATHER SERVICE WAKEFIELD VA
500 AM EDT WED AUG 05 2015

Note: "fair" indicates few or no clouds below 12,000 feet with no
significant weather and/or obstructions to visibility. * = Denotes
station may not report precipitation (e.g., rain,snow,etc.),
thunder or fog.

VAZ042-051-052>054-056-051000-
NORTHERN VIRGINIA

CITY           SKY/WX    TMP DP  RH WIND       PRES   REMARKS
WASH NATIONAL  CLOUDY    76  69  79 N3        29.94S
DULLES         MOCLDY    67  66  97 CALM      29.94F
FORT BELVOIR   CLOUDY    70  68  94 N1        29.93S
QUANTICO       CLOUDY    72  67  84 NW5       29.94R
FREDERICKSBRG* MOCLDY    72  71  95 CALM      29.93S
STAFFORD*      CLOUDY    66  64  93 CALM      29.98R
WARRENTON      FOG       66  66 100 CALM      29.94S VSB 1/2
CULPEPER*      MOCLDY    65  65  99 CALM      29.96S FOG
MANASSAS*      CLOUDY    66  66 100 CALM      29.94S
LEESBURG*      MOCLDY    68  68 100 CALM      29.96S
WINCHESTER     MOCLDY    64  64 100 CALM      29.97R
FRONT ROYAL*   FAIR      64  64 100 CALM      29.96S
LURAY*         FAIR      64  64 100 CALM      29.98S
$$

VAZ048-049-060>072-079>083-051000-
CENTRAL AND SOUTH CENTRAL VIRGINIA

CITY           SKY/WX    TMP DP  RH WIND       PRES   REMARKS
RICHMOND       MOCLDY    77  70  79 W5        29.95R
CHESTERFIELD*  FAIR      72  61  68 NW5       29.97R
PETERSBURG*    PTCLDY    74  74 100 NW3       29.96R
HANOVER        PTCLDY    70  69  97 CALM      29.97R
TAPPAHANNOCK*  PTCLDY    71  68  90 CALM      29.95R FOG
QUINTON*       FAIR      73  72  96 CALM      29.94R
CHARLOTTSVILLE PTCLDY    69  64  84 CALM      29.95F
GORDONSVILLE*  FAIR      66  64  94 NE3       29.95R FOG
ORANGE*        MOCLDY    68  66  94 CALM      29.97R
LOUISA*        PTCLDY    66  66 100 CALM      29.95S FOG
BUMPASS*       FAIR      68  67  97 NW5       29.96R
FARMVILLE*     MOCLDY    70  70 100 CALM      29.95S
CREWE*         FAIR     N/A N/A N/A CALM      29.96R
FORT PICKETT*  FAIR      71  70  96 W10       29.97R
CHASE CITY*    FAIR      73  73 100 CALM      29.98R
CLARKSVILLE*   FAIR      72  68  88 CALM      29.96S
SOUTH HILL*    PTCLDY    74  71  89 CALM      30.03R
LAWRENCEVILLE* FAIR      73  72  94 CALM      29.97R
EMPORIA*       PTCLDY    70  70 100 CALM      29.97R
$$

VAZ088>098-051000-
SOUTHEAST VIRGINIA

CITY           SKY/WX    TMP DP  RH WIND       PRES   REMARKS
NORFOLK        PTCLDY    78  72  81 SW5       29.93R
VIRGINIA BEACH MOCLDY    78  73  84 SW8       29.92S
NORFOLK NAVAL  MOCLDY    77  73  87 W8        29.94S
WEST POINT*    CLOUDY    78  73  85 W3        29.95R
SALUDA*        FAIR      75  73  91 W3        29.92S
NEWPORT NEWS   MOCLDY    76  73  91 W7        29.93S
LANGLEY AFB    MOCLDY    76  73  93 W7        29.92S
FORT EUSTIS    MOCLDY    75  75 100 NW5       29.91S
WILLIAMSBURG*  MOCLDY    79  75  89 CALM      29.94S
HR EXEC AP*    FAIR      73  70  88 W3        29.96R
FRANKLIN*      PTCLDY    73  72  95 CALM      29.95R
WAKEFIELD      PTCLDY    75  71  87 CALM      29.94R
$$

VAZ020-022-025-037-045-051000-
WEST CENTRAL AND SOUTHWEST VIRGINIA

CITY           SKY/WX    TMP DP  RH WIND       PRES   REMARKS
STAUNTON*      MOCLDY    67  63  87 CALM      30.01S
WAYNESBORO*    FAIR      68  63  84 CALM      30.00S
HOT SPRINGS VA CLOUDY    66  66 100 W7        30.11R
LYNCHBURG      MOCLDY    68  67  96 CALM      30.00R
DANVILLE       PTCLDY    70  67  90 CALM      29.99S
SOUTH BOSTON*  FAIR      69  67  94 CALM      29.97S
MARTINSVILLE   PTCLDY    66  66 100 CALM      30.04R
ROANOKE        CLOUDY    75  64  68 W6        30.02S
BLACKSBURG     CLOUDY    70  65  84 CALM      30.10R
DUBLIN*          N/A     70  65  83 SW3       30.09R
MARION*        PTCLDY    65  64  94 W5        30.13R FOG
HILLSVILLE*    PTCLDY    68  62  82 CALM      30.10R
RICHLANDS*     FAIR      65  65 100 CALM      30.12S
WISE*          CLOUDY    66  64  94 CALM      30.13S
ABINGDON*      MOCLDY    67  65  91 CALM      30.10R
$$

MDZ021>025-VAZ099-100-051000-
SOUTHERN MARYLAND AND THE DELMARVA PENINSULA

CITY           SKY/WX    TMP DP  RH WIND       PRES   REMARKS
PATUXENT RIVER CLOUDY    76  72  87 NW5       29.92R
BAY BRIDGE APT   N/A     72  70  94 CALM      29.92S
LEONARDTOWN    CLOUDY    72  70  94 CALM      29.94R
DOVER          MOCLDY    72  72 100 W3        29.89S
GEORGETOWN     CLOUDY    69  68  96 CALM      29.91S
EASTON         CLOUDY    71  71 100 CALM      29.95S FOG
CAMBRIDGE      CLOUDY    72  68  88 CALM      29.92R
SALISBURY      CLOUDY    71  71 100 NW7       29.91R
OCEAN CITY       N/A    N/A N/A N/A MISG      29.89R
WALLOPS ISLAND CLOUDY    73  73 100 SW8       29.91S
ACCOMACK*      MOCLDY   N/A N/A N/A W8        29.91F
$$

NCZ012>017-030>032-051000-
NORTH CENTRAL AND EASTERN NORTH CAROLINA

CITY           SKY/WX    TMP DP  RH WIND       PRES   REMARKS
ROANOKE RAPIDS FAIR      70  70 100 CALM      29.96R
RALEIGH        PTCLDY    75  72  90 CALM      29.98R
ELIZABETH CITY CLEAR     75  74  96 W7        29.95R
AHOSKIE*       CLEAR    N/A N/A N/A CALM      29.96R
EDENTON*       CLEAR     76  73  90 W5        29.96R
CURRITUCK*     CLEAR     76  74  92 SW5       29.95S
KILL DEVIL HLS PTCLDY    78  75  92 CALM      29.94S
MANTEO         CLOUDY    77  76  95 SW5       29.96R
CAPE HATTERAS  MOCLDY    80  76  87 W6        29.96R
TARBORO*         N/A     74  72  92 CALM      29.97R
GOLDSBORO      NOT AVBL
WASHINGTON     CLEAR     74  73  96 SW6       29.97R
GREENVILLE     CLEAR     73  73 100 CALM      29.98R
NEW BERN       CLEAR     75  73  93 SW3       29.98R
WILMINGTON     CLEAR     79  78  97 SW7       29.97S
$$

VAZ048-051000-
ELSEWHERE

CITY           SKY/WX    TMP DP  RH WIND       PRES   REMARKS
HARRISBURG PA  CLOUDY    68  59  73 CALM      29.93S
BALTIMORE      MOCLDY    69  67  93 CALM      29.92F
ANNAPOLIS      MOCLDY    73  69  87 W3        29.92S
ANDREWS AFB    MOCLDY    70  69  98 S1        29.93S
PHILADELPHIA   CLOUDY    74  66  76 SW5       29.91F
HENDERSON NC   CLEAR     73  65  77 W3        29.98R
GREENSBORO     CLEAR     73  63  70 W5        30.00S
ROCKY MOUNT    CLEAR     74  73  97 SW3       29.97R
$$

VAZ100-051000-
MARINE

STATION/POSITION TIME  TEMP    WIND        PRES    WAVE   SWELL
                       AIR SEA DIR/SP/G            HT/PER HT/PER
                 (UTC) (F)     (DEG/KT/KT) (MB)    (FT/S) (FT/S)
BRANDYWINE LGT   0800   73 74  200/  3/  3 1013.1F
CAPE MAY NJ      0800   72 77   CALM  /  1 1012.4F
LEWES DE         0800   72 75     CALM     1012.4F
15NM E FENWICK I 0850   75 79  350/  6/  8 1012.6R   4/ 7   3/ 7
OCEAN-CITY-INLET 0800   74 71  290/ 10/ 13 1010.9F
WACHAPREAGUE VA  0800   77 82  260/  2/  3 1013.1R
GOOSES REEF MD   0900   78 82   40/  6/  8 1014.2R
COVE POINT MD    0800   78      40/  8/ 10 1013.6F
SOLOMONS ISLAND  0800      83                N/A
BISHOPS HEAD MD  0800   76 81  340/  4/  5 1011.7F
PINEY POINT MD   0800          360/  7/  8   N/A
POTOMAC MD       0900   78 82  330/  6/  8 1012.1R   1
CAMBRIDGE MD     0800   74 85   10/  4/  5 1011.9F
LEWISETTA VA     0800   78 84   10/  6/  8 1012.5F
RAPPAHANNOCK LGT 0800          250/ 16/ 18 1013.4R
STINGRAY PT      0900   79 82  280/ 10/ 14 1013.2R   1/ 2
YORK RVR RNG VA  0800   79     280/ 14/ 17 1012.4R
YORKTOWN VA      0800   77 84  240/ 11/ 13 1012.6R
JAMESTOWN VA     0900   78 85  270/  6/  6   N/A
DOMINION TERM VA 0800   78     310/  7/ 10 1013.3R
KIPTOPEKE VA     0800      82  280/ 12/ 14   N/A
CHES BAY BRIDGE  0800   79 78  240/ 12/ 13 1012.9R
CAPE HENRY VA    0800   78     250/  5/  7   N/A
CHESAPEAKE LGHT  0800   77     230/  9/  9 1013.9S
WILLOUBY STN VA  0800   79     270/ 10/ 12 1014.2R
CAPE HENRY BUOY  0828      77                N/A     3/ 6
1ST LANDING BUOY 0900      77              1013.0F   2/ 3
CAPE CHARLES BUO 0826      73                N/A     3/ 6   2/ 6
OFFSHORE WE BUOY 0811      80                N/A     4/ 6   3/ 6
64NM E OF VA BCH 0850   80 81  220/ 14/ 16 1013.2S   5/ 6   3/ 6
DUCK PIER NC     0800   79 62  240/  5/  8 1013.1R
44100 DUCK FRF   0824      77                N/A     3/ 6
44056 DUCK FRF   0811      64                N/A     2/ 6
OREGON INLET NC  0800   79 82  250/  5/  8 1013.8R
HATTERAS NC      0800   78 80  240/  5/  6 1013.9R
DIAMOND SHLS NC  0850   80 84  280/ 14/ 16 1014.6R   6/ 6   3/11
CAPE LOOKOUT NC  0900   80     270/ 16/ 18 1014.7R
$$



USA.gov is the U.S. government's official web portal to all federal, state and local government web resources and services.